CAPE
1645 2604 2436 1331 1096 675 1208 1247 1299 1537 1103 884 1070 899 783 1340 1522 1393 1225 3088 2966 2558 2454 1926 2595 3214 3518 3126 2785 2792 2983 2516 2537 2268 1675 1626 1643 1384 1329 1663 1232 1348 1210
3453 2100 2116 1827 781 746 923 1186 1419 1479 837 389 220 156 158 288 845 1832 1586 1885 3089 2848 2876 2645 2500 2869 3312 3685 3134 2765 2801 2749 2533 2541 2665 2360 2235 2039 1669 1471 1796 1987 1717
2711 2762 2589 1283 916 1488 1984 2188 1551 831 669 446 471 281 169 44 26 245 710 1550 2375 3145 3165 2928 2748 2518 2503 3225 3546 3070 2781 2762 2699 2523 2317 2381 2394 2288 2076 1877 1980 2207 1894
2608 2584 1712 1060 1858 1595 942 1080 1042 982 930 873 958 105 170 75 18 22 1 158 508 668 2401 2902 2423 2101 2132 2438 2542 2832 3039 2707 2562 2499 2261 2361 2077 2241 2214 2060 2009 1996 2020
1973 2118 1399 1587 1523 963 993 1451 1059 1464 1221 764 284 67 195 0 0 0 29 91 172 389 267 1879 2582 2355 2512 1894 2127 2539 2642 2815 2702 2541 2521 2444 2236 1960 2049 2237 2105 1985 1740
1915 1828 1645 1653 1966 1033 1088 2089 2088 1402 625 470 313 89 135 1 48 12 10 1 0 6 15 452 689 906 2643 2437 1865 2039 2456 2429 2532 2639 2631 2527 2351 2161 1953 1746 1922 1948 1702
2004 2144 1706 1515 1810 2099 2863 2651 2211 1877 51 194 50 0 0 0 69 63 0 23 9 72 78 91 54 214 582 2154 2156 2116 1893 2281 2496 2604 2993 2355 2368 2385 2118 1923 1564 1639 1559
2361 2442 2695 2528 2069 2087 2874 2668 2240 865 62 44 35 120 43 0 13 11 4 0 51 0 6 58 212 537 269 125 359 1323 2085 2455 2219 2268 2199 2430 2188 1881 2039 1979 1742 1595 1488
2687 2707 2813 3217 3472 3190 2052 2482 1537 892 52 72 108 235 89 0 45 78 165 2 49 0 0 15 15 166 261 0 96 228 1317 1464 1886 2237 2282 2083 2109 1863 1826 1843 1775 1607 1473
2447 2677 3286 3424 3548 3122 2647 1931 945 752 1250 201 22 56 994 416 172 83 7 50 111 220 135 0 0 1 20 0 0 63 61 11 287 838 1274 1656 1763 1932 2066 2025 1715 1722 1493
2984 3316 3642 3265 3504 2847 3189 1859 775 532 248 358 199 421 557 48 311 1 0 0 0 0 0 0 1 1 16 33 8 2 297 612 156 187 945 1095 985 935 1318 2014 2221 1956 1844
2841 3778 3317 3511 3174 2444 1903 1127 640 370 963 763 692 699 45 0 0 0 0 7 0 0 0 3 17 21 17 11 0 327 724 552 252 212 222 239 221 399 586 1035 2047 2363 2120
1813 3576 3715 3294 2526 2176 1296 950 820 647 696 587 719 270 9 0 0 0 0 0 0 0 0 0 15 30 11 33 18 178 70 40 40 57 31 0 0 16 41 186 1124 1851 2120
1972 3872 3113 2733 1738 1186 1079 1096 555 509 521 621 417 229 2 0 0 0 0 0 5 23 29 142 20 23 21 30 51 354 80 69 49 34 22 26 8 0 0 4 490 308 1148
2474 3120 2744 2129 1378 1334 1169 792 628 530 934 453 77 10 0 0 0 0 0 1 18 30 39 57 66 85 24 73 115 124 108 97 65 42 23 10 24 18 16 16 0 53 313
4590 3404 2229 1524 1340 1228 1079 892 638 636 752 112 0 1 0 0 0 0 0 3 40 82 83 30 35 196 422 463 56 74 89 3 0 0 2 0 0 7 11 21 9 0 0
4987 3356 2555 1643 1227 1287 1184 971 976 638 202 11 1 2 0 153 1 0 0 26 43 62 70 69 115 264 524 140 11 9 2 5 0 0 0 0 9 5 0 2 0 0 0
4323 3009 1982 1960 1545 1416 1071 1021 862 470 27 17 3 3 2 2 36 143 2 141 45 301 217 191 258 262 119 18 2 9 1 0 4 0 0 0 0 0 0 0 0 0 0
4193 3295 2169 1651 1740 1490 1056 992 864 374 40 1 8 10 9 24 262 57 14 43 42 108 152 132 132 90 13 0 0 1 1 0 0 0 0 0 0 0 0 0 0 0 0
3564 2983 1496 1467 1802 1246 1056 1021 526 353 26 35 35 40 56 43 65 4 27 183 179 79 116 147 89 20 2 0 1 4 0 3 0 0 0 0 0 0 0 0 0 0 0
3255 2868 1928 1803 1482 1251 1014 802 458 152 81 129 137 138 108 0 0 3 12 51 49 12 81 146 73 2 0 0 0 0 2 10 0 0 5 0 0 20 22 1 3 2 0
2514 2324 1967 1798 1506 1029 470 80 0 16 34 131 231 213 118 8 0 0 1 0 0 32 152 205 19 1 4 0 9 5 6 0 16 6 1 1 3 37 60 23 14 0 0
2750 2293 2279 1723 1252 978 176 0 0 0 11 97 253 206 3 0 1 4 0 0 0 67 106 167 31 2 0 1 4 2 8 10 6 7 5 2 22 45 7 6 8 3 0
2362 1932 2119 1404 1103 444 73 21 0 0 78 174 275 18 0 4 0 0 0 0 0 90 76 33 36 7 18 1 3 2 7 10 2 6 8 8 12 19 64 256 10 2 1
2322 1758 1482 1157 870 541 75 0 0 1 70 438 22 10 0 0 0 0 0 0 1 0 0 2 0 3 8 6 6 8 2 2 22 9 4 26 10 177 1025 258 80 2 8
1790 1205 908 1438 747 825 81 0 0 0 61 23 100 48 0 0 0 0 0 0 0 0 0 0 4 1 3 7 8 4 5 1 6 1 40 31 110 262 1027 763 363 48 8
CIN
0 -2 -2 -1 -2 -1 -1 -1 -1 0 0 -1 -2 -1 -3 -2 -1 0 -1 -51 -60 -71 -58 -54 -23 -7 -1 -3 -6 -2 0 0 0 0 0 0 0 0 0 0 0 0 0
-5 0 -1 -1 -1 0 0 0 -1 0 -4 -7 -20 -50 -54 -23 -2 -16 -11 -16 -48 -59 -54 -53 -43 -21 -4 0 -3 -7 -3 0 0 0 0 0 0 0 0 0 0 0 0
-1 -3 0 -1 -2 -1 -3 -1 -2 0 -1 -10 -10 -29 -50 -111 -148 -21 0 -5 -17 -66 -63 -55 -45 -43 -29 -5 0 -3 -7 -5 -3 -2 -3 -1 0 0 0 0 0 0 0
0 -1 -1 -1 -7 -2 -1 -1 0 0 0 -2 -3 -63 -69 -114 -175 -188 -16 -31 -1 -1 -42 -59 -55 -47 -39 -21 -14 -1 -1 -6 -9 -9 -13 -7 -8 0 0 0 0 0 0
0 0 -1 0 -8 -1 0 -1 -7 0 -4 -15 -34 -81 -65 0 0 0 -145 -92 -31 -2 -3 -23 -60 -43 -38 -24 -21 -9 -3 -2 -5 -10 -10 -11 -16 -17 -3 0 0 0 0
0 -1 0 -1 -1 0 0 -4 -1 -7 -34 -27 -52 -8 -30 -8 -90 -127 -81 -8 0 -9 -16 -2 -1 -5 -46 -24 -28 -18 -13 -13 -9 -5 -6 -8 -12 -15 -16 -16 -6 -1 0
0 0 0 0 0 0 -3 -4 0 -1 -89 -34 -97 0 0 0 -46 -18 0 -98 -115 -43 -64 -55 -47 -14 -2 -30 -27 -32 -17 -9 -9 -5 -1 -11 -13 -7 -9 -16 -27 -17 -18
-1 0 0 0 0 0 0 -2 -1 -32 -65 -10 -128 -85 -81 0 -17 -45 -16 0 -13 0 0 -42 -56 -4 -19 -43 -12 -13 -12 -9 -13 -10 -6 -3 -9 -19 -18 -11 -18 -27 -28
0 0 0 0 0 0 0 -5 -5 -37 -109 -140 -109 -44 -71 0 -107 -20 -22 0 -13 0 0 -24 -5 -23 -33 0 -5 -42 -10 -27 -8 -3 -1 -2 -3 -8 -19 -18 -21 -28 -34
0 0 0 0 0 -1 -15 -2 -23 -62 -24 -69 -94 -34 -2 -5 -27 -89 -64 0 0 -14 -7 0 0 0 -1 0 0 -27 -72 -156 -31 -13 -7 -3 0 -1 -3 -4 -21 -27 -38
0 0 0 -3 -7 -32 -2 -54 -99 -98 -93 -43 -41 -30 -6 -73 -1 -1 0 0 0 0 0 0 0 0 0 -3 0 -3 -42 -34 -64 -37 -8 -2 0 0 0 0 -1 -11 -17
-1 -1 -1 -5 -7 -26 -60 -116 -113 -120 -33 -32 -52 -15 -85 0 0 0 0 -16 0 0 0 0 0 0 0 -1 0 -50 -18 -25 -49 -55 -46 -19 -9 -2 0 0 0 0 -6
-12 -3 -8 -12 -68 -74 -104 -110 -80 -80 -42 -34 -10 -28 -19 0 0 0 0 0 0 0 0 0 0 0 0 0 0 -69 -136 -114 -115 -92 -133 0 0 -36 -96 -46 0 0 0
-12 -1 -5 -20 -88 -118 -103 -66 -83 -57 -45 -16 -1 -13 -35 0 0 0 0 0 0 0 0 -34 -109 -131 0 0 -1 -40 -7 -43 -27 -46 -29 -34 -32 0 0 -14 0 -37 -1
-3 -8 -44 -58 -119 -91 -67 -84 -46 -45 -5 -18 -42 -15 0 0 0 0 0 0 0 0 0 0 0 -51 -74 -74 -55 -162 0 -1 -1 -5 -37 -35 -16 -18 -15 -6 0 -124 -33
0 -1 -85 -175 -125 -81 -72 -67 -45 -8 -13 -82 0 0 0 0 0 0 0 0 0 0 0 0 0 -7 0 0 -67 0 0 0 0 0 -3 0 0 -26 -21 -9 -4 0 0
0 -7 -33 -73 -126 -65 -59 -51 -34 -34 -67 -64 0 0 0 -7 0 0 0 0 0 0 0 -10 -2 -3 0 -1 0 0 0 0 0 0 0 0 -16 -26 0 -6 0 0 0
0 -13 -64 -117 -55 -46 -59 -45 -41 -41 -135 -112 0 0 0 0 -2 -3 0 -1 0 -10 -35 -35 -2 0 0 -2 -1 -4 0 -11 -9 0 0 0 0 0 0 0 0 0 0
0 0 -33 -34 -1 -35 -60 -46 -29 -58 -95 0 -7 -36 -39 -12 0 0 0 -1 0 -2 -7 -6 -6 -4 0 0 -2 -2 0 -5 0 0 0 0 0 0 0 0 0 0 0
0 0 -36 -35 0 -39 -46 -32 -53 -54 -71 -29 -25 -8 -3 -9 -9 0 0 -68 -26 -5 -16 -13 -12 0 0 0 0 -1 -1 -5 0 0 0 0 0 0 0 0 0 0 0
-1 0 -18 -11 -16 -40 -35 -45 -45 -52 -24 -12 -21 -26 0 0 0 -14 -1 -5 0 -2 -24 -10 -19 0 0 0 0 0 0 -1 0 0 0 0 0 -6 0 0 -11 -14 0
-31 -15 -18 -30 -37 -52 -45 -113 0 -85 -56 -10 -8 -2 -5 -18 0 0 -25 0 0 -6 -8 -3 -17 0 0 0 0 0 0 0 0 -2 0 -1 0 0 0 -6 -3 0 0
-5 -16 -13 -13 -13 -18 -22 0 0 0 -57 -28 -1 -1 -11 0 0 -1 0 0 0 -58 -29 -15 -2 -1 0 0 0 0 0 -3 -1 -5 -1 -2 -2 0 -1 -1 -3 0 0
-52 -54 -2 -16 -14 -19 -102 -137 0 0 -24 -7 0 -5 0 -8 0 0 0 0 -4 -26 -39 -13 -5 -1 0 0 0 0 0 0 0 0 -1 -1 -1 -1 -14 -30 -6 -1 0
-38 -73 -19 -14 -6 -31 -71 0 0 -4 -8 -1 -1 -12 0 0 0 0 0 0 0 -7 0 -31 0 -5 0 0 0 0 0 0 -2 0 0 -10 -6 -1 0 -7 -104 -1 -1
-68 -63 -47 0 -20 -2 -59 0 0 0 0 0 0 -7 0 0 0 0 0 0 0 0 0 0 -21 -1 0 0 0 -1 0 0 -16 -4 -4 -3 -8 -3 0 -6 -36 -155 0
Wind_Speed
10 11 12 13 13 7 10 9 5 7 9 14 14 10 8 9 9 10 7 22 19 17 16 14 14 15 17 18 17 14 13 17 17 16 14 12 11 11 11 13 13 12 11
5 8 11 16 12 11 5 9 10 13 12 8 7 6 6 9 10 13 10 10 21 20 20 18 17 16 15 19 18 18 16 14 19 18 16 15 13 12 12 11 12 10 10
6 11 15 14 12 10 15 14 11 10 8 6 8 7 8 nan nan 4 6 13 19 24 26 24 22 23 21 15 17 16 17 18 18 20 19 16 15 13 12 12 10 9 9
9 11 14 11 9 12 6 5 4 2 4 6 7 7 9 nan nan nan nan 12 14 13 24 25 24 21 19 20 12 12 16 19 21 24 22 17 16 15 11 10 9 7 8
10 12 10 10 10 9 6 5 5 5 7 8 10 nan 13 nan nan nan nan nan 14 18 19 24 24 24 19 15 12 13 16 17 22 25 24 21 21 17 13 10 9 8 8
16 13 9 16 14 11 11 11 8 8 8 10 11 nan 15 nan nan nan nan nan nan nan nan 21 21 20 24 20 15 15 17 19 20 22 26 18 16 18 15 11 11 9 8
13 14 14 17 18 16 17 15 13 10 nan 18 nan nan nan nan nan nan nan nan nan nan nan nan nan 25 26 26 23 19 18 20 18 17 21 19 17 16 14 9 12 14 12
14 15 16 16 15 14 13 16 18 16 nan nan nan 17 nan nan nan nan nan nan nan nan nan nan 27 26 26 26 27 29 24 23 20 18 18 19 14 17 18 13 13 14 14
21 21 20 19 18 19 17 22 22 19 nan nan 25 24 nan nan nan nan 28 nan nan nan nan nan nan 28 29 nan nan 27 26 28 24 20 17 18 19 22 21 16 12 14 14
29 30 26 25 27 23 21 21 28 16 21 21 nan nan 29 24 23 nan nan nan 30 30 29 nan nan nan nan nan nan nan nan nan 27 24 20 18 17 22 24 17 10 12 9
27 28 28 30 27 19 25 28 17 23 25 27 28 32 30 nan 33 nan nan nan nan nan nan nan nan nan nan nan nan nan 33 41 36 32 29 23 21 18 22 23 16 12 14
29 30 24 25 24 16 13 18 25 26 29 29 31 37 nan nan nan nan nan nan nan nan nan nan nan nan nan nan nan 34 34 29 35 35 34 30 25 22 19 22 26 21 18
32 25 23 30 26 18 17 20 26 27 28 30 29 32 nan nan nan nan nan nan nan nan nan nan nan nan nan nan nan 34 nan nan nan nan nan nan nan nan nan 22 19 22 27
26 28 29 31 27 26 26 27 27 27 30 30 32 34 nan nan nan nan nan nan nan nan nan 29 nan nan nan nan nan 36 nan nan nan nan nan nan nan nan nan nan 24 25 21
24 27 28 26 26 27 27 31 29 30 33 35 nan nan nan nan nan nan nan nan nan nan nan nan nan nan nan nan 38 45 42 nan nan nan nan nan nan nan nan nan nan nan 25
27 29 36 34 32 31 33 36 34 35 35 34 nan nan nan nan nan nan nan nan nan nan nan nan nan 38 34 35 nan nan nan nan nan nan nan nan nan nan nan nan nan nan nan
31 30 28 29 35 37 39 38 36 35 37 nan nan nan nan 38 nan nan nan nan nan nan nan nan 38 34 31 37 nan nan nan nan nan nan nan nan nan nan nan nan nan nan nan
36 39 38 38 43 40 40 42 40 36 nan nan nan nan nan nan nan 43 nan 41 nan 41 42 35 37 36 32 nan nan nan nan nan nan nan nan nan nan nan nan nan nan nan nan
41 43 47 49 29 42 43 44 41 40 nan nan nan nan nan nan 43 nan nan nan nan 41 39 38 36 nan nan nan nan nan nan nan nan nan nan nan nan nan nan nan nan nan nan
39 45 52 51 50 47 46 47 45 43 nan nan nan nan nan nan nan nan nan 40 42 nan 37 37 nan nan nan nan nan nan nan nan nan nan nan nan nan nan nan nan nan nan nan
44 49 55 53 53 48 47 47 44 44 nan 41 41 41 43 nan nan nan nan nan nan nan nan 36 nan nan nan nan nan nan nan nan nan nan nan nan nan nan nan nan nan nan nan
50 52 52 55 56 49 55 nan nan nan nan 43 42 41 40 nan nan nan nan nan nan nan 37 40 nan nan nan nan nan nan nan nan nan nan nan nan nan nan nan nan nan nan nan
55 54 60 56 49 52 53 nan nan nan nan nan 43 43 nan nan nan nan nan nan nan nan 39 39 nan nan nan nan nan nan nan nan nan nan nan nan nan nan nan nan nan nan nan
59 61 53 48 52 53 nan nan nan nan nan 42 44 nan nan nan nan nan nan nan nan nan nan nan nan nan nan nan nan nan nan nan nan nan nan nan nan nan nan 38 nan nan nan
66 69 52 47 53 63 nan nan nan nan nan 42 nan nan nan nan nan nan nan nan nan nan nan nan nan nan nan nan nan nan nan nan nan nan nan nan nan 18 17 24 nan nan nan
81 66 54 48 57 55 nan nan nan nan nan nan 40 nan nan nan nan nan nan nan nan nan nan nan nan nan nan nan nan nan nan nan nan nan nan nan 7 7 15 18 34 nan nan
Wind_Direction
76 68 59 77 53 63 28 40 23 54 48 44 23 31 36 39 38 22 25 343 350 327 314 302 285 281 286 294 292 283 280 286 303 306 311 314 320 327 341 358 2 3 8
85 84 54 48 29 18 21 44 27 38 37 36 36 36 48 41 11 349 338 320 331 334 333 334 331 334 299 277 283 284 282 275 278 292 297 301 305 315 326 339 359 3 5
67 62 42 35 15 9 29 32 34 15 23 10 21 3 17 nan nan 320 323 327 332 341 342 336 334 325 336 307 269 285 283 280 276 275 280 291 295 303 317 327 345 357 355
21 45 35 15 320 34 11 15 11 330 3 9 331 331 324 nan nan nan nan 312 283 290 321 333 332 329 329 343 299 276 292 283 282 287 279 276 291 294 301 314 327 337 336
12 16 32 326 343 3 331 317 275 349 335 348 331 nan 321 nan nan nan nan nan 312 314 290 309 322 321 337 333 330 297 291 292 289 289 292 280 272 278 294 297 307 318 319
356 357 6 337 349 340 321 298 326 329 342 319 310 nan 321 nan nan nan nan nan nan nan nan 279 282 291 318 311 311 294 293 304 292 293 300 295 295 254 277 288 289 300 307
2 350 357 344 346 348 316 330 312 313 nan 310 nan nan nan nan nan nan nan nan nan nan nan nan nan 275 273 294 296 301 297 285 294 301 291 304 274 255 257 274 284 293 297
354 351 347 343 337 329 322 303 302 318 nan nan nan 319 nan nan nan nan nan nan nan nan nan nan 271 273 270 266 256 267 279 282 286 288 291 290 270 251 231 259 278 297 282
354 345 340 337 321 318 318 300 305 314 nan nan 309 312 nan nan nan nan 300 nan nan nan nan nan nan 289 275 nan nan 259 265 267 266 267 266 275 268 247 247 236 271 296 263
348 341 330 332 325 297 300 315 309 298 307 310 nan nan 315 318 313 nan nan nan 294 289 283 nan nan nan nan nan nan nan nan nan 257 266 268 259 262 251 239 252 249 286 249
348 343 327 320 315 292 292 304 305 307 315 321 317 317 319 nan 320 nan nan nan nan nan nan nan nan nan nan nan nan nan 261 260 252 254 255 251 246 245 233 224 244 266 266
353 359 32 25 17 6 312 309 314 322 323 315 320 323 nan nan nan nan nan nan nan nan nan nan nan nan nan nan nan 276 273 257 251 255 253 248 242 234 232 229 226 230 262
355 354 340 348 358 348 330 319 325 322 321 316 312 312 nan nan nan nan nan nan nan nan nan nan nan nan nan nan nan 276 nan nan nan nan nan nan nan nan nan 228 227 234 237
356 356 350 345 343 341 332 325 321 320 317 316 309 318 nan nan nan nan nan nan nan nan nan 311 nan nan nan nan nan 266 nan nan nan nan nan nan nan nan nan nan 238 231 231
344 335 341 343 346 339 330 326 327 329 322 318 nan nan nan nan nan nan nan nan nan nan nan nan nan nan nan nan 263 259 255 nan nan nan nan nan nan nan nan nan nan nan 244
325 322 332 336 341 341 335 332 329 328 320 315 nan nan nan nan nan nan nan nan nan nan nan nan nan 306 294 272 nan nan nan nan nan nan nan nan nan nan nan nan nan nan nan
327 317 322 333 332 335 331 331 328 324 323 nan nan nan nan 314 nan nan nan nan nan nan nan nan 309 311 300 285 nan nan nan nan nan nan nan nan nan nan nan nan nan nan nan
331 321 320 321 335 332 328 331 331 326 nan nan nan nan nan nan nan 312 nan 314 nan 314 313 315 312 313 304 nan nan nan nan nan nan nan nan nan nan nan nan nan nan nan nan
331 331 327 321 346 333 331 327 329 326 nan nan nan nan nan nan 315 nan nan nan nan 315 313 317 317 nan nan nan nan nan nan nan nan nan nan nan nan nan nan nan nan nan nan
326 329 321 329 334 330 327 326 326 328 nan nan nan nan nan nan nan nan nan 316 314 nan 317 315 nan nan nan nan nan nan nan nan nan nan nan nan nan nan nan nan nan nan nan
323 324 327 325 327 323 324 322 323 327 nan 323 324 322 323 nan nan nan nan nan nan nan nan 316 nan nan nan nan nan nan nan nan nan nan nan nan nan nan nan nan nan nan nan
320 322 324 320 323 319 308 nan nan nan nan 323 323 322 319 nan nan nan nan nan nan nan 322 314 nan nan nan nan nan nan nan nan nan nan nan nan nan nan nan nan nan nan nan
319 319 321 308 310 311 308 nan nan nan nan nan 319 321 nan nan nan nan nan nan nan nan 319 316 nan nan nan nan nan nan nan nan nan nan nan nan nan nan nan nan nan nan nan
311 309 314 326 322 313 nan nan nan nan nan 323 321 nan nan nan nan nan nan nan nan nan nan nan nan nan nan nan nan nan nan nan nan nan nan nan nan nan nan 216 nan nan nan
307 319 320 315 316 310 nan nan nan nan nan 320 nan nan nan nan nan nan nan nan nan nan nan nan nan nan nan nan nan nan nan nan nan nan nan nan nan 193 214 225 nan nan nan
310 315 308 315 319 310 nan nan nan nan nan nan 317 nan nan nan nan nan nan nan nan nan nan nan nan nan nan nan nan nan nan nan nan nan nan nan 187 170 196 220 226 nan nan